Location: ?????
(54.9266°N, 38.5527°E)
Time: 03:49:21
(UTC+00:00)

Cosmos 2297 - Pass Details

Date: 14 April 2024
Orbit: 834 x 859 km, 71.0° (Epoch: 20 May)

Event Time Altitude Azimuth Distance (km) Brightness Sun altitude
Rises 01:19:58 0° 326° (NW) 3,439 6.9 -9.3°
Reaches altitude 10° 01:22:26 10° 327° (NNW) 2,502 6.2 -9.0°
Maximum altitude 01:28:12 84° 57° (ENE) 871 3.9 -8.2°
Drops below altitude 10° 01:33:58 10° 145° (SE) 2,493 6.2 -7.5°
Sets 01:36:25 0° 147° (SSE) 3,426 6.9 -7.2°
